Aidamar — ICSJ — position and weather

sailwx.info

Track history (hours):
 
Tides and Currents Weather Stations Pressure Air Temp Water Temp Dewpoint Dewpoint Depression Visibility Wind Speed Wind Dir Waves Ship Positions

Aidamar

Last reported at 2014-Oct-24 21:33 UTC. Time now 2014-Oct-25 15:21 UTC.
Position N 40°10' E 002°12'.

Length 253 m; draft 7.3 m.

Type: Ship. MMSI: 247312900.

Date/timePositionNaut miles runAvg speedWind from/ knotsBaromVisibWave heightAir tempDewpointWater temp
2014-Oct-24 21:33N 40°10' E 002°12'1815.3
2014-Oct-24 20:23N 40°28' E 002°12'1615.1
2014-Oct-24 19:21N 40°44' E 002°13'1315.4
2014-Oct-24 18:30N 40°57' E 002°13'1614.7
2014-Oct-24 17:27N 41°12' E 002°13'  
2014-Oct-21 23:11N 39°50' E 013°55'2515.1
2014-Oct-21 21:29N 39°25' E 013°48'3515.2
2014-Oct-21 19:11N 38°51' E 013°38'1016.4
2014-Oct-21 18:34N 38°41' E 013°35'1716.5
2014-Oct-21 17:33N 38°25' E 013°30'1515.1
2014-Oct-21 16:33N 38°10' E 013°27'5 4.5
2014-Oct-21 15:33N 38°08' E 013°22'0 0.0
2014-Oct-21 14:30N 38°08' E 013°22'0 0.0
2014-Oct-21 13:32N 38°08' E 013°22'0 0.0
2014-Oct-21 12:33N 38°08' E 013°22'0 0.0
2014-Oct-21 11:33N 38°08' E 013°22'0 0.0
2014-Oct-21 10:32N 38°08' E 013°22'0 0.0
2014-Oct-21 09:33N 38°08' E 013°22'0 0.0
2014-Oct-21 08:33N 38°08' E 013°22'0 0.0
2014-Oct-21 07:31N 38°08' E 013°22'0 0.0
2014-Oct-21 06:33N 38°08' E 013°22'0 0.1
2014-Oct-21 05:33N 38°08' E 013°22'4 4.4
2014-Oct-21 04:33N 38°12' E 013°24'1313.2
2014-Oct-21 03:33N 38°17' E 013°08'1616.3
2014-Oct-21 02:33N 38°16' E 012°47'161 8.0
2014-Oct-20 06:26N 35°59' E 014°32'1715.6
2014-Oct-20 05:19N 36°10' E 014°15'1415.5
2014-Oct-20 04:26N 36°16' E 013°60'17417.6
2014-Oct-19 18:32N 37°29' E 010°42'2420.2
2014-Oct-19 17:21N 37°33' E 010°12'2220.2
2014-Oct-19 16:16N 37°38' E 009°45'1419.6
2014-Oct-19 15:33N 37°42' E 009°28'2019.8
2014-Oct-19 14:33N 37°47' E 009°04'2019.8
2014-Oct-19 13:33N 37°52' E 008°40'2119.4
2014-Oct-19 12:28N 37°57' E 008°14'1718.9
2014-Oct-19 11:33N 38°02' E 007°53'2118.3
2014-Oct-19 10:24N 38°07' E 007°27'11119.1
2014-Oct-19 04:33N 38°36' E 005°10'6419.5
2014-Oct-19 01:16N 38°53' E 003°51'3319.6
2014-Oct-18 23:33N 39°02' E 003°09'2119.4
2014-Oct-18 22:28N 39°14' E 002°46'1617.6
2014-Oct-18 21:33N 39°29' E 002°39'4 0.8
2014-Oct-18 16:32N 39°33' E 002°38'0 0.0
2014-Oct-18 15:32N 39°33' E 002°38'0 0.0
2014-Oct-18 14:32N 39°33' E 002°38'0 0.0
2014-Oct-18 13:32N 39°33' E 002°38'0 0.0
2014-Oct-18 12:33N 39°33' E 002°38'0 0.0
2014-Oct-18 11:31N 39°33' E 002°38'0 0.0
2014-Oct-18 10:31N 39°33' E 002°38'0 0.0
2014-Oct-18 08:19N 39°33' E 002°38'0 0.0
2014-Oct-18 07:31N 39°33' E 002°38'0 0.0
2014-Oct-18 06:25N 39°33' E 002°38'0 0.0
2014-Oct-18 05:31N 39°33' E 002°38'0 0.0
2014-Oct-18 04:33N 39°33' E 002°38'0 0.0
2014-Oct-18 03:33N 39°33' E 002°38'3 2.9
2014-Oct-18 02:33N 39°30' E 002°37'8 7.8
2014-Oct-18 01:33N 39°26' E 002°28'8 7.9
2014-Oct-18 00:33N 39°29' E 002°20'8 7.7
2014-Oct-17 23:34N 39°34' E 002°11'1414.0
2014-Oct-17 22:33N 39°48' E 002°11'1615.7
2014-Oct-17 21:33N 40°04' E 002°11'1615.8
2014-Oct-17 20:33N 40°19' E 002°12'1615.6
2014-Oct-17 19:33N 40°35' E 002°12'1515.4
2014-Oct-17 18:33N 40°50' E 002°13'1616.1
2014-Oct-17 17:33N 41°07' E 002°13'1514.7
2014-Oct-17 16:33N 41°21' E 002°11'1 0.9
2014-Oct-17 15:18N 41°22' E 002°11'0 0.0
2014-Oct-17 14:27N 41°22' E 002°11'0 0.0
2014-Oct-17 13:33N 41°22' E 002°11'0 0.0
2014-Oct-17 12:21N 41°22' E 002°11'0 0.0
2014-Oct-17 11:33N 41°22' E 002°11'0 0.0
2014-Oct-17 10:33N 41°22' E 002°11'0 0.0
2014-Oct-17 09:21N 41°22' E 002°11'0 0.0
2014-Oct-17 08:33N 41°22' E 002°11'0 0.0
2014-Oct-17 07:33N 41°22' E 002°11'5 4.7
2014-Oct-17 06:33N 41°19' E 002°16'1312.7
2014-Oct-17 05:33N 41°20' E 002°33'1515.3
2014-Oct-17 04:33N 41°20' E 002°53'1515.1
2014-Oct-17 03:33N 41°19' E 003°13'3115.3
2014-Oct-17 01:32N 41°19' E 003°54'42814.8
2014-Oct-15 20:31N 40°42' E 013°19'1516.1
2014-Oct-15 19:34N 40°39' E 013°39'1615.7
2014-Oct-15 18:33N 40°39' E 013°60'1515.3
2014-Oct-15 17:33N 40°48' E 014°16'39 2.3
2014-Oct-15 00:34N 40°10' E 014°01'9 8.7
2014-Oct-14 23:34N 40°02' E 013°58'1514.8
2014-Oct-14 22:33N 39°47' E 013°55'1716.7
2014-Oct-14 21:33N 39°31' E 013°49'  
Track history (hours):
 
Tides and Currents Weather Stations Pressure Air Temp Water Temp Dewpoint Dewpoint Depression Visibility Wind Speed Wind Dir Waves Ship Positions

Aidamar

Last reported at 2014-Oct-24 21:33 UTC. Time now 2014-Oct-25 15:21 UTC.
Position N 40°10' E 002°12'.

Length 253 m; draft 7.3 m.

Type: Ship. MMSI: 247312900.

Date/timePositionNaut miles runAvg speedWind from/ knotsBaromVisibWave heightAir tempDewpointWater temp
2014-Oct-24 21:33N 40°10' E 002°12'1815.3
2014-Oct-24 20:23N 40°28' E 002°12'1615.1
2014-Oct-24 19:21N 40°44' E 002°13'1315.4
2014-Oct-24 18:30N 40°57' E 002°13'1614.7
2014-Oct-24 17:27N 41°12' E 002°13'  
2014-Oct-21 23:11N 39°50' E 013°55'2515.1
2014-Oct-21 21:29N 39°25' E 013°48'3515.2
2014-Oct-21 19:11N 38°51' E 013°38'1016.4
2014-Oct-21 18:34N 38°41' E 013°35'1716.5
2014-Oct-21 17:33N 38°25' E 013°30'1515.1
2014-Oct-21 16:33N 38°10' E 013°27'5 4.5
2014-Oct-21 15:33N 38°08' E 013°22'0 0.0
2014-Oct-21 14:30N 38°08' E 013°22'0 0.0
2014-Oct-21 13:32N 38°08' E 013°22'0 0.0
2014-Oct-21 12:33N 38°08' E 013°22'0 0.0
2014-Oct-21 11:33N 38°08' E 013°22'0 0.0
2014-Oct-21 10:32N 38°08' E 013°22'0 0.0
2014-Oct-21 09:33N 38°08' E 013°22'0 0.0
2014-Oct-21 08:33N 38°08' E 013°22'0 0.0
2014-Oct-21 07:31N 38°08' E 013°22'0 0.0
2014-Oct-21 06:33N 38°08' E 013°22'0 0.1
2014-Oct-21 05:33N 38°08' E 013°22'4 4.4
2014-Oct-21 04:33N 38°12' E 013°24'1313.2
2014-Oct-21 03:33N 38°17' E 013°08'1616.3
2014-Oct-21 02:33N 38°16' E 012°47'161 8.0
2014-Oct-20 06:26N 35°59' E 014°32'1715.6
2014-Oct-20 05:19N 36°10' E 014°15'1415.5
2014-Oct-20 04:26N 36°16' E 013°60'17417.6
2014-Oct-19 18:32N 37°29' E 010°42'2420.2
2014-Oct-19 17:21N 37°33' E 010°12'2220.2
2014-Oct-19 16:16N 37°38' E 009°45'1419.6
2014-Oct-19 15:33N 37°42' E 009°28'2019.8
2014-Oct-19 14:33N 37°47' E 009°04'2019.8
2014-Oct-19 13:33N 37°52' E 008°40'2119.4
2014-Oct-19 12:28N 37°57' E 008°14'1718.9
2014-Oct-19 11:33N 38°02' E 007°53'2118.3
2014-Oct-19 10:24N 38°07' E 007°27'11119.1
2014-Oct-19 04:33N 38°36' E 005°10'6419.5
2014-Oct-19 01:16N 38°53' E 003°51'3319.6
2014-Oct-18 23:33N 39°02' E 003°09'2119.4
2014-Oct-18 22:28N 39°14' E 002°46'1617.6
2014-Oct-18 21:33N 39°29' E 002°39'4 0.8
2014-Oct-18 16:32N 39°33' E 002°38'0 0.0
2014-Oct-18 15:32N 39°33' E 002°38'0 0.0
2014-Oct-18 14:32N 39°33' E 002°38'0 0.0
2014-Oct-18 13:32N 39°33' E 002°38'0 0.0
2014-Oct-18 12:33N 39°33' E 002°38'0 0.0
2014-Oct-18 11:31N 39°33' E 002°38'0 0.0
2014-Oct-18 10:31N 39°33' E 002°38'0 0.0
2014-Oct-18 08:19N 39°33' E 002°38'0 0.0
2014-Oct-18 07:31N 39°33' E 002°38'0 0.0
2014-Oct-18 06:25N 39°33' E 002°38'0 0.0
2014-Oct-18 05:31N 39°33' E 002°38'0 0.0
2014-Oct-18 04:33N 39°33' E 002°38'0 0.0
2014-Oct-18 03:33N 39°33' E 002°38'3 2.9
2014-Oct-18 02:33N 39°30' E 002°37'8 7.8
2014-Oct-18 01:33N 39°26' E 002°28'8 7.9
2014-Oct-18 00:33N 39°29' E 002°20'8 7.7
2014-Oct-17 23:34N 39°34' E 002°11'1414.0
2014-Oct-17 22:33N 39°48' E 002°11'1615.7
2014-Oct-17 21:33N 40°04' E 002°11'1615.8
2014-Oct-17 20:33N 40°19' E 002°12'1615.6
2014-Oct-17 19:33N 40°35' E 002°12'1515.4
2014-Oct-17 18:33N 40°50' E 002°13'1616.1
2014-Oct-17 17:33N 41°07' E 002°13'1514.7
2014-Oct-17 16:33N 41°21' E 002°11'1 0.9
2014-Oct-17 15:18N 41°22' E 002°11'0 0.0
2014-Oct-17 14:27N 41°22' E 002°11'0 0.0
2014-Oct-17 13:33N 41°22' E 002°11'0 0.0
2014-Oct-17 12:21N 41°22' E 002°11'0 0.0
2014-Oct-17 11:33N 41°22' E 002°11'0 0.0
2014-Oct-17 10:33N 41°22' E 002°11'0 0.0
2014-Oct-17 09:21N 41°22' E 002°11'0 0.0
2014-Oct-17 08:33N 41°22' E 002°11'0 0.0
2014-Oct-17 07:33N 41°22' E 002°11'5 4.7
2014-Oct-17 06:33N 41°19' E 002°16'1312.7
2014-Oct-17 05:33N 41°20' E 002°33'1515.3
2014-Oct-17 04:33N 41°20' E 002°53'1515.1
2014-Oct-17 03:33N 41°19' E 003°13'3115.3
2014-Oct-17 01:32N 41°19' E 003°54'42814.8
2014-Oct-15 20:31N 40°42' E 013°19'1516.1
2014-Oct-15 19:34N 40°39' E 013°39'1615.7
2014-Oct-15 18:33N 40°39' E 013°60'1515.3
2014-Oct-15 17:33N 40°48' E 014°16'39 2.3
2014-Oct-15 00:34N 40°10' E 014°01'9 8.7
2014-Oct-14 23:34N 40°02' E 013°58'1514.8
2014-Oct-14 22:33N 39°47' E 013°55'1716.7
2014-Oct-14 21:33N 39°31' E 013°49'  

Dump ship's entire track history